{"data":{"norad_id":45397,"intl_designator":"2020-019AP","name":"STARLINK-1307","alt_names":[],"object_type":"PAYLOAD","status":"ACTIVE","operator":null,"country":"US","launch_date":"2020-03-18","launch_site_code":"AFETR","launch_vehicle":null,"mission":null,"orbit_class":"UNKNOWN","rcs_meters":null,"size_class":null,"mass_kg":null,"dimensions":null,"purposes":["comms"],"wikipedia_slug":null,"has_3d_model":false,"image_url":null,"decayed_at":null,"tle_current":{"epoch":"2026-09-19T15:33:45.330048Z","epoch_age_seconds":87836,"freshness":"FRESH","line1":"1 45397U 20019AP  26262.64844132  .00034158  00000+0  35966-3 0  9992","line2":"2 45397  53.0484 270.0854 0003442  61.4173 298.7187 15.63975936360279","mean_motion":15.63975936,"eccentricity":0.0003442,"inclination_deg":53.0484,"raan_deg":270.0854,"arg_perigee_deg":61.4173,"mean_anomaly_deg":298.7187,"bstar":0.00035966,"rev_number":36027,"period_min":92.07302790623,"perigee_km":373.86072166727,"apogee_km":378.51039731722,"semimajor_km":6754.3225594922,"source":"CELESTRAK","updated_at":"2026-09-20T09:00:38.233401Z"}}}